STARLINK-1903

Last updated on Tue Nov 24 2020 00:02:02 GMT+0000 (Coordinated Universal Time)

1 46764U 20074AB 20328.58334491 -.01092062 00000-0 -17424-1 0 9993 2 46764 53.0555 13.5637 0001191 59.3644 313.0586 15.55348165 1853

Satellite not in orbit